星链-32154 (STARLINK-32154)

导读 | 豆包AI

STARLINK-32154是美国SpaceX公司星链(Starlink)低轨通信星座的组网卫星,于2024年7月27日发射入轨。它属于星链第二代量产卫星,采用平板造型设计,配备单块太阳电池阵,搭载Ku/Ka波段通信载荷与光学星间链路,依托氪工质霍尔推进器完成轨道维持与离轨操作,设计寿命5-7年,主要为全球提供覆盖广泛的低延迟宽带互联网接入服务,退役后会主动离轨坠入大气层焚毁。

基本信息
目录编号:
60276
目录名称:
STARLINK-32154
国际标识:
2024-131X
轨道中心:
EARTH
卫星名称:
星链-32154 (STARLINK-32154)
卫星全名:
星链-32154 (STARLINK-32154)
卫星状态:
在轨 (已飞行643 天)
发射日期:
2024-07-27 UTC
国别 :
美国 (US)
星等 :
--
轨道信息
数据来源 国际轨道数据 AOE轨道数据
星历时间 2026-04-30T18:11:37+0800
17小时前
查看轨道信息
2026-04-25T08:00:00+0800
6天前
查看轨道信息
半长轴 6853.645km 6853.404km
偏心率 0.0001935 0.0001097
轨道倾角 53.160° 53.157°
近地点辐角 75.708° 17.517°
升交点赤经 171.826° 197.022°
平近点角 284.413° 322.906°
近地点 474.181km 474.515km
远地点 476.835km 476.019km
周期 94.111分钟 94.106分钟
每日圈数 15.301022 15.301829
详细信息
卫星平台:
Starlink v2.0 mini
运营商:
太空探索技术公司
运营商所在国:
美国
制造商(研发单位):
太空探索技术公司
制造商所在国:
美国
使用方式:
暂无
卫星简介
星链(Starlink)计划是由太空探索技术公司(SpaceX)提出的一个巨型低轨卫星互联网星座项目,计划在2019年至2024年间在太空搭建由约1.2万颗卫星组成的“星链”网络,其中1584颗将部署在地球上空550千米处的近地轨道,并从2020年开始工作。该卫星仍在工作。
2D轨道图
3D轨道图
轨道高度分析图
轨道倾角分析图
轨道综合分析图
查看轨道综合分析图